[[{"header":{"parameterUnit":"m.s-1","parameterCategory":1,"la1":30.2992,"la2":30.254,"lo1":-89.0895,"lo2":-89.0443,"dy":0.0025,"dx":0.0025,"nx":19,"ny":19,"refTime":"2026-05-06T21:00:00:Z","depth":0,"parameterNumber":2,"parameterNumberName":"U-component_of_WINDS"},"data":[0,0,0,-2.0586,-2.0586,-2.061,-2.061,-2.0647,-2.0647,0,0,0,0,0,0,0,0,0,0,0,-2.0582,-2.0582,-2.0586,-2.0586,-2.061,-2.061,-2.0647,-2.0647,0,0,0,0,0,0,0,0,0,0,0,-2.0582,-2.0582,-2.0583,-2.0586,-2.061,-2.061,-2.0647,-2.0627,0,0,0,0,0,0,0,0,0,0,-2.0603,-2.0602,-2.0582,-2.0583,-2.0587,-2.061,-2.061,-2.0626,-2.0628,-2.0639,0,-2.0648,0,-2.0648,-2.065,-2.065,0,0,0,-2.0584,-2.06,-2.0604,-2.0583,-2.0587,-2.061,-2.0599,-2.0627,-2.0629,-2.0642,-2.0649,-2.065,-2.0649,-2.065,-2.065,-2.0719,-2.072,0,0,-2.0583,-2.0588,-2.0602,-2.0605,-2.0601,-2.0598,-2.0599,-2.0628,-2.0637,-2.0649,-2.0651,-2.065,-2.0651,-2.0651,-2.0719,-2.0719,0,0,0,-2.0581,-2.0587,-2.059,-2.0604,-2.0608,-2.0599,-2.06,-2.0635,-2.0636,-2.0651,-2.065,-2.0651,-2.0651,-2.0718,-2.0719,-2.0744,0,0,0,-2.058,-2.0586,-2.0589,-2.0593,-2.0607,-2.0622,-2.0607,-2.0634,-2.0637,-2.065,-2.0651,-2.0652,-2.0718,-2.0719,-2.0742,-2.0755,0,0,0,-2.0579,-2.0586,-2.059,-2.0593,-2.0603,-2.0621,-2.0623,-2.0634,-2.0636,-2.065,-2.0652,-2.0717,-2.0718,-2.0741,-2.0752,-2.0774,0,0,0,-2.058,-2.0613,-2.0591,-2.0626,-2.0603,-2.0637,-2.0623,-2.0648,-2.0663,-2.0651,-2.0718,-2.0719,-2.074,-2.0751,-2.0772,-2.0792,-2.0801,0,0,-2.0624,-2.0618,-2.0639,-2.062,-2.0658,-2.0633,-2.0676,-2.0685,-2.0682,-2.0707,-2.0709,-2.0743,-2.0752,-2.0774,-2.0852,-2.0859,0,0,0,-2.0654,-2.0669,-2.0678,-2.0692,-2.07,-2.0708,-2.071,-2.0714,-2.0735,-2.0696,-2.0757,-2.0762,-2.0775,-2.0784,-2.079,-2.08,-2.0724,-2.0724,-2.0723,-2.0722,-2.0717,-2.075,-2.0748,-2.0762,-2.0765,-2.0776,-2.0781,-2.0772,-2.0787,-2.0793,-2.0842,-2.0853,-2.0857,-2.0868,-2.0805,-2.0805,-2.0805,-2.0805,-2.0784,-2.0804,-2.0791,-2.0819,-2.0814,-2.0838,-2.0842,-2.0835,-2.0856,-2.0836,-2.0846,-2.0823,-2.0865,-2.0874,-2.0807,-2.0807,-2.0806,-2.0806,-2.0806,-2.0827,-2.0835,-2.0839,-2.086,-2.0877,-2.0874,-2.0896,-2.0891,-2.0886,-2.0896,-2.0903,-2.0902,-2.0901,-2.09,-2.09,-2.0901,-2.0901,-2.0901,-2.0901,-2.0869,-2.0873,-2.0891,-2.0903,-2.0912,-2.0923,-2.0927,-2.0936,-2.0944,-2.0939,-2.0939,-2.0928,-2.0871,-2.0856,-2.0904,-2.0903,-2.0903,-2.0903,-2.0902,-2.0931,-2.0917,-2.0945,-2.0954,-2.0968,-2.0985,-2.0979,-2.0998,-2.1004,-2.1015,-2.1003,-2.0962,-2.0955,-2.095,-2.0938,-2.1004,-2.1004,-2.1004,-2.1004,-2.0966,-2.0963,-2.0991,-2.1006,-2.102,-2.1017,-2.105,-2.1054,-2.1056,-2.106,-2.1051,-2.1034,-2.103,-2.1026,-2.1019,-2.1007,-2.109,-2.109,-2.109,-2.1004,-2.1002,-2.103,-2.1032,-2.1043,-2.1053,-2.1083,-2.1102,-2.1101,-2.1093,-2.1063,-2.106,-2.1033,-2.1025,-2.1014,-2.1004,-2.0982,0,0]},{"header":{"parameterUnit":"m.s-1","parameterCategory":1,"la1":30.2992,"la2":30.254,"lo1":-89.0895,"lo2":-89.0443,"dy":0.0025,"dx":0.0025,"nx":19,"ny":19,"refTime":"2026-05-06T21:00:00:Z","depth":0,"parameterNumber":3,"parameterNumberName":"V-component_of_WINDS"},"data":[0,0,0,5.3476,5.3478,5.3584,5.3585,5.372,5.3721,0,0,0,0,0,0,0,0,0,0,0,5.3444,5.3445,5.3476,5.3478,5.3584,5.3585,5.372,5.3721,0,0,0,0,0,0,0,0,0,0,0,5.3444,5.3445,5.3446,5.3479,5.3584,5.3585,5.3719,5.3639,0,0,0,0,0,0,0,0,0,0,5.3536,5.3507,5.3445,5.3446,5.3479,5.3584,5.3585,5.3635,5.3644,5.3672,0,5.3697,0,5.3711,5.373,5.3731,0,0,0,5.3478,5.35,5.3529,5.3446,5.348,5.3584,5.3536,5.364,5.365,5.3684,5.3699,5.3704,5.3713,5.3731,5.3732,5.3897,5.3898,0,0,5.3472,5.3463,5.3522,5.3535,5.352,5.3533,5.354,5.3646,5.3662,5.3699,5.3707,5.3716,5.3732,5.3733,5.3896,5.3897,0,0,0,5.3455,5.3459,5.3485,5.353,5.3549,5.3536,5.3544,5.3657,5.3666,5.3708,5.3717,5.3733,5.3734,5.3895,5.3897,5.393,0,0,0,5.3452,5.3449,5.3483,5.3478,5.3547,5.3604,5.3552,5.3659,5.3671,5.3717,5.3733,5.3736,5.3894,5.3896,5.3927,5.3947,0,0,0,5.3437,5.3448,5.3463,5.3477,5.3523,5.3603,5.3618,5.3662,5.3677,5.3731,5.3736,5.3894,5.3896,5.3925,5.3943,5.3992,0,0,0,5.3419,5.3488,5.3463,5.3544,5.3522,5.3623,5.3618,5.3693,5.3742,5.3733,5.3895,5.3896,5.3924,5.3941,5.3989,5.4032,5.4049,0,0,5.3501,5.3497,5.3546,5.3527,5.3631,5.3607,5.3716,5.3768,5.3779,5.3857,5.3861,5.3928,5.3943,5.3991,5.4141,5.4154,0,0,0,5.3569,5.3604,5.3634,5.3682,5.3726,5.3767,5.3804,5.3824,5.3891,5.3818,5.3958,5.3967,5.3995,5.4016,5.4028,5.4054,5.3905,5.3905,5.3905,5.3672,5.3687,5.377,5.3799,5.3846,5.3887,5.3927,5.3961,5.3958,5.3992,5.4015,5.4105,5.4129,5.4138,5.4165,5.4037,5.4037,5.4038,5.4038,5.3796,5.3849,5.385,5.3931,5.3946,5.4014,5.4057,5.4054,5.412,5.4087,5.4113,5.4078,5.4152,5.4177,5.404,5.404,5.404,5.4039,5.4039,5.3866,5.3895,5.3921,5.3997,5.4053,5.408,5.4145,5.4155,5.4165,5.4191,5.4219,5.4219,5.4222,5.4203,5.4204,5.4204,5.4204,5.4205,5.4205,5.393,5.3958,5.4013,5.407,5.4105,5.4153,5.4198,5.4232,5.4274,5.4276,5.4277,5.4274,5.4156,5.4128,5.421,5.4209,5.4208,5.4208,5.4207,5.4054,5.4029,5.4113,5.4149,5.4219,5.4277,5.4291,5.4362,5.4392,5.4425,5.4418,5.4328,5.4324,5.4315,5.4292,5.4412,5.4412,5.4412,5.4412,5.4115,5.4115,5.4207,5.4265,5.4323,5.4345,5.4443,5.4479,5.4513,5.4533,5.4517,5.4486,5.4477,5.4479,5.4467,5.4445,5.4602,5.4602,5.4602,5.4194,5.4201,5.4281,5.4317,5.4373,5.4422,5.4515,5.4582,5.4614,5.461,5.455,5.4542,5.4493,5.4476,5.447,5.4451,5.4412,0,0]}]]